VHASH YSHL-YMML

Flight info

Callsign VHASH
Flight time 1h 22m
Altitude 20000
Route NWA W241 CB V169 BOYSE DCT VISAS DCT MMLEF DCT MMLEM DCT MMLEH
Aircraft TBM9/L-SDFGRWY/S

Departure

Time 2026-04-30 09:56
Airport Shellharbour Airport (YSHL)

Arrival

Time 2026-04-30 11:19
Airport Melbourne Airport (YMML)
Time Latitude Longitude Altitude Speed Heading
2026-04-30 09:40 -34.55935 150.78945 38 ft 0 kts 349°
2026-04-30 09:48 -34.55942 150.78956 39 ft 3 kts 258°
2026-04-30 09:48 -34.55941 150.78964 39 ft 0 kts 259°
2026-04-30 09:51 -34.55943 150.78952 39 ft 6 kts 258°
2026-04-30 09:52 -34.55947 150.78929 37 ft 9 kts 258°
2026-04-30 09:52 -34.55960 150.78858 37 ft 6 kts 248°
2026-04-30 09:52 -34.56003 150.78861 40 ft 10 kts 172°
2026-04-30 09:52 -34.56095 150.78880 38 ft 15 kts 168°
2026-04-30 09:53 -34.56198 150.78897 40 ft 15 kts 184°
2026-04-30 09:53 -34.56269 150.78900 40 ft 16 kts 178°
2026-04-30 09:53 -34.56416 150.78929 41 ft 16 kts 169°
2026-04-30 09:53 -34.56529 150.78953 38 ft 17 kts 168°
2026-04-30 09:54 -34.56650 150.78982 37 ft 18 kts 171°
2026-04-30 09:54 -34.56702 150.78988 38 ft 4 kts 193°
2026-04-30 09:54 -34.56720 150.78979 39 ft 4 kts 206°
2026-04-30 09:54 -34.56723 150.78978 39 ft 1 kts 206°
2026-04-30 09:55 -34.56736 150.78962 40 ft 8 kts 250°
2026-04-30 09:55 -34.56733 150.78896 40 ft 4 kts 336°
2026-04-30 09:55 -34.56680 150.78886 39 ft 25 kts 350°
2026-04-30 09:55 -34.56307 150.78801 40 ft 83 kts 349°
2026-04-30 09:56 -34.55601 150.78637 115 ft 122 kts 349°
2026-04-30 09:56 -34.54664 150.78433 283 ft 147 kts 352°
2026-04-30 09:56 -34.53640 150.78276 683 ft 150 kts 353°
2026-04-30 09:56 -34.52652 150.78532 1100 ft 150 kts 37°
2026-04-30 09:57 -34.52134 150.79679 1226 ft 169 kts 83°
2026-04-30 09:57 -34.52201 150.81104 1544 ft 168 kts 92°
2026-04-30 09:57 -34.52321 150.82503 1901 ft 167 kts 92°
2026-04-30 09:57 -34.52436 150.83915 2237 ft 169 kts 92°
2026-04-30 09:58 -34.52564 150.85328 2566 ft 169 kts 92°
2026-04-30 09:58 -34.52697 150.86750 2885 ft 170 kts 92°
2026-04-30 09:58 -34.52836 150.88181 3204 ft 171 kts 93°
2026-04-30 09:58 -34.52975 150.89617 3523 ft 171 kts 93°
2026-04-30 09:59 -34.53252 150.92482 4121 ft 173 kts 93°
2026-04-30 09:59 -34.54064 150.95171 4707 ft 183 kts 142°
2026-04-30 10:00 -34.56469 150.95064 5355 ft 190 kts 219°
2026-04-30 10:00 -34.57467 150.94000 5685 ft 191 kts 222°
2026-04-30 10:01 -34.59450 150.91837 6433 ft 193 kts 221°
2026-04-30 10:01 -34.60452 150.90749 6805 ft 194 kts 221°
2026-04-30 10:01 -34.61464 150.89653 7145 ft 195 kts 221°
2026-04-30 10:02 -34.63503 150.87443 7838 ft 197 kts 221°
2026-04-30 10:02 -34.64533 150.86328 8256 ft 199 kts 221°
2026-04-30 10:02 -34.65564 150.85208 8728 ft 200 kts 221°
2026-04-30 10:02 -34.66606 150.84078 9183 ft 201 kts 221°
2026-04-30 10:03 -34.67654 150.82940 9640 ft 203 kts 221°
2026-04-30 10:03 -34.68710 150.81793 10105 ft 205 kts 221°
2026-04-30 10:03 -34.69777 150.80635 10561 ft 206 kts 221°
2026-04-30 10:03 -34.70847 150.79474 10989 ft 206 kts 221°
2026-04-30 10:04 -34.71906 150.78321 11410 ft 208 kts 221°
2026-04-30 10:04 -34.72985 150.77147 11830 ft 209 kts 222°
2026-04-30 10:04 -34.74069 150.75969 12250 ft 210 kts 222°
2026-04-30 10:04 -34.75162 150.74780 12682 ft 211 kts 222°
2026-04-30 10:05 -34.76258 150.73586 13135 ft 212 kts 223°
2026-04-30 10:05 -34.77361 150.72385 13594 ft 213 kts 223°
2026-04-30 10:05 -34.78471 150.71175 14057 ft 215 kts 223°
2026-04-30 10:05 -34.79587 150.69958 14477 ft 216 kts 223°
2026-04-30 10:06 -34.80713 150.68733 14889 ft 217 kts 222°
2026-04-30 10:06 -34.81842 150.67501 15297 ft 218 kts 222°
2026-04-30 10:06 -34.82976 150.66265 15719 ft 219 kts 222°
2026-04-30 10:06 -34.84110 150.65025 16136 ft 220 kts 222°
2026-04-30 10:07 -34.85254 150.63775 16554 ft 221 kts 222°
2026-04-30 10:07 -34.86386 150.62539 16973 ft 222 kts 222°
2026-04-30 10:07 -34.87538 150.61281 17393 ft 223 kts 222°
2026-04-30 10:07 -34.88696 150.60015 17813 ft 224 kts 222°
2026-04-30 10:08 -34.89858 150.58745 18228 ft 225 kts 222°
2026-04-30 10:08 -34.91028 150.57464 18649 ft 227 kts 222°
2026-04-30 10:08 -34.92208 150.56172 19012 ft 229 kts 222°
2026-04-30 10:08 -34.93393 150.54876 19379 ft 230 kts 222°
2026-04-30 10:09 -34.94566 150.53542 19742 ft 231 kts 229°
2026-04-30 10:09 -34.95390 150.51876 20110 ft 231 kts 249°
2026-04-30 10:09 -34.95876 150.50004 20425 ft 235 kts 253°
2026-04-30 10:09 -34.96376 150.48028 20439 ft 252 kts 253°
2026-04-30 10:10 -34.96912 150.45930 20444 ft 265 kts 253°
2026-04-30 10:10 -34.97468 150.43735 20451 ft 276 kts 253°
2026-04-30 10:10 -34.98147 150.41519 20451 ft 283 kts 242°
2026-04-30 10:10 -34.99220 150.39471 20454 ft 289 kts 235°
2026-04-30 10:11 -35.00405 150.37465 20454 ft 293 kts 234°
2026-04-30 10:11 -35.01532 150.35377 20450 ft 297 kts 239°
2026-04-30 10:11 -35.02575 150.33220 20455 ft 299 kts 240°
2026-04-30 10:11 -35.03647 150.31041 20456 ft 300 kts 238°
2026-04-30 10:12 -35.04754 150.28876 20453 ft 302 kts 238°
2026-04-30 10:12 -35.05864 150.26697 20456 ft 302 kts 238°
2026-04-30 10:12 -35.06964 150.24508 20452 ft 303 kts 238°
2026-04-30 10:12 -35.08067 150.22312 20453 ft 304 kts 238°
2026-04-30 10:13 -35.09175 150.20113 20453 ft 304 kts 238°
2026-04-30 10:13 -35.10284 150.17912 20454 ft 304 kts 238°
2026-04-30 10:13 -35.11393 150.15706 20456 ft 305 kts 238°
2026-04-30 10:13 -35.12501 150.13501 20453 ft 305 kts 239°
2026-04-30 10:14 -35.13608 150.11299 20455 ft 305 kts 239°
2026-04-30 10:14 -35.14717 150.09089 20457 ft 305 kts 239°
2026-04-30 10:14 -35.16936 150.04665 20455 ft 305 kts 239°
2026-04-30 10:15 -35.18042 150.02457 20455 ft 305 kts 239°
2026-04-30 10:15 -35.19132 150.00279 20455 ft 305 kts 239°
2026-04-30 10:15 -35.20241 149.98066 20456 ft 305 kts 239°
2026-04-30 10:15 -35.21344 149.95859 20456 ft 305 kts 239°
2026-04-30 10:16 -35.22450 149.93646 20460 ft 305 kts 239°
2026-04-30 10:16 -35.23557 149.91430 20457 ft 305 kts 239°
2026-04-30 10:16 -35.24659 149.89222 20459 ft 304 kts 239°
2026-04-30 10:17 -35.26867 149.84795 20459 ft 304 kts 239°
2026-04-30 10:17 -35.29071 149.80368 20458 ft 305 kts 239°
2026-04-30 10:17 -35.30173 149.78153 20455 ft 305 kts 239°
2026-04-30 10:18 -35.31277 149.75935 20459 ft 304 kts 239°
2026-04-30 10:18 -35.32365 149.73743 20457 ft 304 kts 239°
2026-04-30 10:18 -35.33466 149.71526 20455 ft 304 kts 239°
2026-04-30 10:19 -35.35663 149.67098 20459 ft 304 kts 239°
2026-04-30 10:19 -35.36761 149.64885 20458 ft 304 kts 239°
2026-04-30 10:19 -35.37859 149.62667 20458 ft 304 kts 239°
2026-04-30 10:19 -35.38959 149.60445 20455 ft 304 kts 239°
2026-04-30 10:20 -35.40054 149.58231 20459 ft 304 kts 240°
2026-04-30 10:20 -35.42248 149.53791 20462 ft 304 kts 240°
2026-04-30 10:20 -35.43342 149.51575 20464 ft 304 kts 240°
2026-04-30 10:21 -35.44422 149.49386 20461 ft 304 kts 240°
2026-04-30 10:21 -35.45515 149.47170 20461 ft 304 kts 240°
2026-04-30 10:21 -35.46608 149.44953 20462 ft 304 kts 240°
2026-04-30 10:21 -35.47702 149.42730 20462 ft 304 kts 240°
2026-04-30 10:22 -35.48794 149.40510 20462 ft 304 kts 240°
2026-04-30 10:22 -35.49884 149.38295 20461 ft 304 kts 240°
2026-04-30 10:22 -35.50974 149.36077 20462 ft 303 kts 240°
2026-04-30 10:22 -35.52066 149.33854 20468 ft 303 kts 240°
2026-04-30 10:23 -35.53155 149.31636 20469 ft 303 kts 240°
2026-04-30 10:23 -35.54243 149.29417 20468 ft 303 kts 240°
2026-04-30 10:23 -35.55332 149.27196 20470 ft 303 kts 240°
2026-04-30 10:23 -35.56421 149.24975 20467 ft 303 kts 240°
2026-04-30 10:24 -35.57508 149.22754 20469 ft 303 kts 240°
2026-04-30 10:24 -35.58594 149.20535 20468 ft 303 kts 240°
2026-04-30 10:24 -35.59680 149.18316 20472 ft 303 kts 240°
2026-04-30 10:24 -35.60767 149.16090 20469 ft 303 kts 240°
2026-04-30 10:25 -35.61854 149.13865 20472 ft 303 kts 240°
2026-04-30 10:25 -35.62938 149.11645 20470 ft 303 kts 240°
2026-04-30 10:25 -35.64021 149.09423 20476 ft 303 kts 240°
2026-04-30 10:25 -35.65106 149.07196 20477 ft 303 kts 240°
2026-04-30 10:26 -35.66189 149.04973 20479 ft 303 kts 240°
2026-04-30 10:26 -35.67270 149.02754 20482 ft 303 kts 240°
2026-04-30 10:26 -35.68349 149.00535 20482 ft 303 kts 240°
2026-04-30 10:26 -35.69430 148.98311 20483 ft 303 kts 240°
2026-04-30 10:27 -35.70511 148.96087 20491 ft 302 kts 240°
2026-04-30 10:27 -35.71591 148.93863 20485 ft 302 kts 240°
2026-04-30 10:27 -35.72669 148.91640 20486 ft 302 kts 240°
2026-04-30 10:27 -35.73734 148.89446 20491 ft 302 kts 240°
2026-04-30 10:28 -35.74810 148.87223 20491 ft 302 kts 240°
2026-04-30 10:28 -35.75887 148.85001 20490 ft 302 kts 240°
2026-04-30 10:28 -35.76962 148.82779 20495 ft 302 kts 240°
2026-04-30 10:28 -35.78037 148.80556 20495 ft 302 kts 240°
2026-04-30 10:29 -35.79113 148.78331 20495 ft 302 kts 240°
2026-04-30 10:29 -35.80188 148.76103 20492 ft 302 kts 240°
2026-04-30 10:29 -35.81262 148.73879 20493 ft 302 kts 240°
2026-04-30 10:29 -35.82335 148.71654 20490 ft 302 kts 240°
2026-04-30 10:30 -35.83410 148.69426 20495 ft 302 kts 240°
2026-04-30 10:30 -35.84482 148.67200 20491 ft 302 kts 240°
2026-04-30 10:30 -35.85553 148.64975 20496 ft 302 kts 240°
2026-04-30 10:30 -35.86625 148.62745 20493 ft 302 kts 240°
2026-04-30 10:31 -35.87697 148.60516 20493 ft 302 kts 240°
2026-04-30 10:31 -35.88769 148.58286 20491 ft 302 kts 240°
2026-04-30 10:31 -35.89837 148.56063 20491 ft 302 kts 240°
2026-04-30 10:31 -35.90906 148.53833 20491 ft 302 kts 240°
2026-04-30 10:32 -35.91975 148.51604 20492 ft 302 kts 240°
2026-04-30 10:32 -35.93042 148.49378 20489 ft 302 kts 241°
2026-04-30 10:32 -35.94111 148.47145 20486 ft 302 kts 240°
2026-04-30 10:32 -35.95179 148.44914 20485 ft 302 kts 241°
2026-04-30 10:33 -35.96248 148.42680 20483 ft 302 kts 241°
2026-04-30 10:33 -35.97314 148.40449 20481 ft 302 kts 241°
2026-04-30 10:33 -35.98378 148.38220 20477 ft 302 kts 241°
2026-04-30 10:33 -35.99443 148.35990 20474 ft 301 kts 241°
2026-04-30 10:34 -36.00508 148.33758 20472 ft 301 kts 241°
2026-04-30 10:34 -36.01573 148.31523 20470 ft 301 kts 241°
2026-04-30 10:34 -36.02622 148.29322 20466 ft 301 kts 241°
2026-04-30 10:34 -36.03686 148.27088 20468 ft 301 kts 241°
2026-04-30 10:35 -36.04744 148.24863 20462 ft 301 kts 241°
2026-04-30 10:35 -36.05805 148.22633 20461 ft 300 kts 241°
2026-04-30 10:35 -36.06855 148.20423 20461 ft 300 kts 241°
2026-04-30 10:35 -36.07917 148.18185 20456 ft 300 kts 241°
2026-04-30 10:36 -36.08975 148.15955 20452 ft 301 kts 241°
2026-04-30 10:36 -36.10033 148.13727 20454 ft 300 kts 241°
2026-04-30 10:36 -36.11089 148.11498 20450 ft 300 kts 241°
2026-04-30 10:36 -36.12144 148.09268 20450 ft 300 kts 241°
2026-04-30 10:37 -36.13199 148.07040 20447 ft 300 kts 241°
2026-04-30 10:37 -36.14253 148.04812 20444 ft 300 kts 241°
2026-04-30 10:37 -36.15305 148.02587 20444 ft 300 kts 241°
2026-04-30 10:37 -36.16357 148.00360 20440 ft 300 kts 241°
2026-04-30 10:38 -36.17411 147.98126 20439 ft 299 kts 241°
2026-04-30 10:38 -36.18461 147.95901 20441 ft 300 kts 241°
2026-04-30 10:38 -36.19511 147.93672 20443 ft 300 kts 241°
2026-04-30 10:38 -36.20561 147.91443 20440 ft 299 kts 241°
2026-04-30 10:39 -36.21597 147.89243 20438 ft 299 kts 241°
2026-04-30 10:39 -36.22647 147.87012 20436 ft 299 kts 241°
2026-04-30 10:39 -36.23696 147.84781 20436 ft 299 kts 241°
2026-04-30 10:39 -36.24742 147.82555 20435 ft 299 kts 241°
2026-04-30 10:40 -36.25786 147.80330 20431 ft 299 kts 241°
2026-04-30 10:40 -36.26832 147.78103 20437 ft 299 kts 241°
2026-04-30 10:40 -36.27874 147.75880 20435 ft 299 kts 241°
2026-04-30 10:40 -36.28580 147.74372 20434 ft 299 kts 241°
2026-04-30 10:41 -36.29604 147.72186 20436 ft 299 kts 241°
2026-04-30 10:41 -36.30657 147.69937 20435 ft 299 kts 241°
2026-04-30 10:41 -36.31701 147.67704 20438 ft 299 kts 241°
2026-04-30 10:41 -36.32745 147.65471 20438 ft 299 kts 241°
2026-04-30 10:42 -36.33789 147.63235 20434 ft 299 kts 241°
2026-04-30 10:42 -36.34831 147.61005 20435 ft 299 kts 241°
2026-04-30 10:42 -36.35872 147.58774 20434 ft 299 kts 241°
2026-04-30 10:42 -36.36912 147.56542 20435 ft 299 kts 241°
2026-04-30 10:43 -36.37952 147.54312 20435 ft 298 kts 241°
2026-04-30 10:43 -36.38989 147.52084 20434 ft 298 kts 241°
2026-04-30 10:43 -36.40027 147.49853 20432 ft 298 kts 241°
2026-04-30 10:43 -36.41064 147.47623 20431 ft 298 kts 241°
2026-04-30 10:44 -36.42101 147.45390 20433 ft 298 kts 241°
2026-04-30 10:44 -36.43135 147.43163 20432 ft 298 kts 241°
2026-04-30 10:44 -36.44172 147.40929 20433 ft 298 kts 241°
2026-04-30 10:44 -36.45194 147.38725 20430 ft 298 kts 241°
2026-04-30 10:45 -36.46231 147.36489 20433 ft 298 kts 241°
2026-04-30 10:45 -36.47265 147.34256 20431 ft 298 kts 241°
2026-04-30 10:45 -36.48299 147.32020 20431 ft 298 kts 241°
2026-04-30 10:45 -36.49331 147.29789 20427 ft 298 kts 241°
2026-04-30 10:46 -36.50366 147.27550 20430 ft 298 kts 241°
2026-04-30 10:46 -36.51400 147.25313 20432 ft 298 kts 241°
2026-04-30 10:46 -36.52432 147.23076 20432 ft 298 kts 241°
2026-04-30 10:46 -36.53464 147.20839 20433 ft 298 kts 241°
2026-04-30 10:47 -36.54495 147.18603 20431 ft 298 kts 241°
2026-04-30 10:47 -36.55524 147.16371 20432 ft 298 kts 241°
2026-04-30 10:47 -36.56555 147.14129 20429 ft 298 kts 241°
2026-04-30 10:47 -36.57585 147.11890 20429 ft 298 kts 241°
2026-04-30 10:48 -36.58616 147.09648 20430 ft 298 kts 241°
2026-04-30 10:48 -36.59644 147.07410 20429 ft 298 kts 241°
2026-04-30 10:48 -36.60671 147.05174 20430 ft 298 kts 241°
2026-04-30 10:48 -36.61686 147.02961 20430 ft 298 kts 241°
2026-04-30 10:49 -36.62714 147.00717 20429 ft 298 kts 241°
2026-04-30 10:49 -36.63740 146.98479 20427 ft 298 kts 241°
2026-04-30 10:49 -36.64768 146.96235 20429 ft 298 kts 241°
2026-04-30 10:49 -36.65796 146.93988 20429 ft 298 kts 241°
2026-04-30 10:50 -36.66822 146.91743 20430 ft 298 kts 241°
2026-04-30 10:50 -36.67849 146.89495 20429 ft 298 kts 241°
2026-04-30 10:50 -36.68875 146.87250 20430 ft 298 kts 241°
2026-04-30 10:50 -36.69899 146.85006 20426 ft 298 kts 241°
2026-04-30 10:51 -36.70925 146.82757 20424 ft 298 kts 241°
2026-04-30 10:51 -36.71946 146.80514 20427 ft 297 kts 242°
2026-04-30 10:51 -36.72967 146.78271 20428 ft 298 kts 241°
2026-04-30 10:51 -36.73989 146.76027 20428 ft 298 kts 241°
2026-04-30 10:52 -36.75010 146.73782 20427 ft 298 kts 242°
2026-04-30 10:52 -36.76032 146.71534 20422 ft 298 kts 242°
2026-04-30 10:52 -36.77040 146.69313 20422 ft 298 kts 242°
2026-04-30 10:52 -36.78060 146.67065 20424 ft 298 kts 242°
2026-04-30 10:53 -36.79082 146.64812 20424 ft 298 kts 242°
2026-04-30 10:53 -36.80117 146.62568 20416 ft 298 kts 239°
2026-04-30 10:53 -36.81252 146.60399 20417 ft 298 kts 238°
2026-04-30 10:53 -36.82378 146.58233 20418 ft 298 kts 238°
2026-04-30 10:54 -36.83500 146.56056 20418 ft 298 kts 238°
2026-04-30 10:54 -36.84621 146.53883 20417 ft 298 kts 238°
2026-04-30 10:54 -36.85745 146.51711 20416 ft 298 kts 238°
2026-04-30 10:54 -36.86869 146.49538 20416 ft 298 kts 238°
2026-04-30 10:55 -36.87992 146.47360 20416 ft 298 kts 238°
2026-04-30 10:55 -36.89101 146.45212 20417 ft 298 kts 238°
2026-04-30 10:55 -36.90223 146.43034 20413 ft 298 kts 238°
2026-04-30 10:55 -36.91344 146.40857 20413 ft 298 kts 238°
2026-04-30 10:56 -36.92389 146.38829 20411 ft 298 kts 238°
2026-04-30 10:56 -36.93511 146.36650 20410 ft 298 kts 238°
2026-04-30 10:56 -36.94631 146.34472 20408 ft 298 kts 238°
2026-04-30 10:56 -36.95751 146.32293 20407 ft 298 kts 238°
2026-04-30 10:57 -36.96873 146.30108 20415 ft 299 kts 242°
2026-04-30 10:57 -36.97998 146.27915 20400 ft 300 kts 242°
2026-04-30 10:57 -36.99124 146.25721 20403 ft 300 kts 242°
2026-04-30 10:57 -37.00246 146.23533 20405 ft 299 kts 242°
2026-04-30 10:58 -37.01373 146.21334 20404 ft 300 kts 242°
2026-04-30 10:58 -37.02499 146.19133 20405 ft 300 kts 242°
2026-04-30 10:58 -37.03621 146.16940 20401 ft 300 kts 242°
2026-04-30 10:58 -37.04745 146.14742 20401 ft 300 kts 242°
2026-04-30 10:59 -37.05869 146.12543 20397 ft 299 kts 242°
2026-04-30 10:59 -37.06991 146.10343 20393 ft 299 kts 242°
2026-04-30 10:59 -37.08097 146.08176 20397 ft 299 kts 242°
2026-04-30 10:59 -37.09219 146.05976 20392 ft 299 kts 242°
2026-04-30 11:00 -37.10341 146.03773 20394 ft 299 kts 242°
2026-04-30 11:00 -37.11460 146.01576 20369 ft 300 kts 242°
2026-04-30 11:00 -37.12597 145.99339 20074 ft 309 kts 242°
2026-04-30 11:00 -37.13765 145.97037 19629 ft 318 kts 242°
2026-04-30 11:01 -37.14982 145.94641 18977 ft 331 kts 241°
2026-04-30 11:01 -37.16226 145.92201 18480 ft 333 kts 241°
2026-04-30 11:01 -37.17473 145.89747 18020 ft 331 kts 241°
2026-04-30 11:01 -37.18701 145.87324 17575 ft 329 kts 241°
2026-04-30 11:02 -37.19925 145.84908 17143 ft 327 kts 241°
2026-04-30 11:02 -37.21179 145.82540 16710 ft 326 kts 237°
2026-04-30 11:02 -37.22528 145.80260 16278 ft 324 kts 237°
2026-04-30 11:02 -37.23860 145.77984 15853 ft 323 kts 237°
2026-04-30 11:03 -37.25172 145.75707 15430 ft 321 kts 237°
2026-04-30 11:03 -37.26468 145.73471 15008 ft 320 kts 237°
2026-04-30 11:03 -37.27778 145.71222 14583 ft 319 kts 237°
2026-04-30 11:04 -37.30361 145.66771 13717 ft 310 kts 237°
2026-04-30 11:04 -37.31619 145.64596 13312 ft 305 kts 237°
2026-04-30 11:04 -37.32861 145.62452 12907 ft 302 kts 237°
2026-04-30 11:04 -37.34090 145.60327 12509 ft 300 kts 237°
2026-04-30 11:05 -37.35311 145.58215 12113 ft 298 kts 237°
2026-04-30 11:05 -37.36528 145.56109 11720 ft 297 kts 237°
2026-04-30 11:05 -37.37739 145.54010 11323 ft 296 kts 237°
2026-04-30 11:05 -37.38944 145.51924 10936 ft 294 kts 237°
2026-04-30 11:06 -37.40145 145.49843 10549 ft 293 kts 237°
2026-04-30 11:06 -37.41336 145.47771 10150 ft 292 kts 237°
2026-04-30 11:06 -37.42631 145.45812 9753 ft 292 kts 227°
2026-04-30 11:06 -37.44140 145.44153 9663 ft 287 kts 223°
2026-04-30 11:07 -37.45633 145.42515 9483 ft 284 kts 226°
2026-04-30 11:07 -37.47050 145.40827 9285 ft 283 kts 227°
2026-04-30 11:07 -37.48481 145.39127 9067 ft 283 kts 226°
2026-04-30 11:07 -37.49933 145.37450 8851 ft 283 kts 226°
2026-04-30 11:08 -37.51380 145.35773 8633 ft 282 kts 226°
2026-04-30 11:08 -37.52817 145.34089 8416 ft 282 kts 227°
2026-04-30 11:08 -37.54250 145.32407 8195 ft 281 kts 227°
2026-04-30 11:08 -37.55678 145.30743 7972 ft 279 kts 226°
2026-04-30 11:09 -37.57092 145.29100 7759 ft 275 kts 226°
2026-04-30 11:09 -37.58485 145.27471 7550 ft 271 kts 227°
2026-04-30 11:09 -37.59854 145.25864 7341 ft 268 kts 227°
2026-04-30 11:09 -37.61212 145.24271 7134 ft 266 kts 227°
2026-04-30 11:10 -37.62569 145.22683 6925 ft 265 kts 227°
2026-04-30 11:10 -37.63919 145.21102 6716 ft 264 kts 227°
2026-04-30 11:10 -37.65264 145.19524 6504 ft 264 kts 227°
2026-04-30 11:10 -37.66606 145.17948 6295 ft 264 kts 227°
2026-04-30 11:11 -37.67950 145.16373 6090 ft 264 kts 227°
2026-04-30 11:11 -37.69294 145.14794 5886 ft 264 kts 227°
2026-04-30 11:11 -37.70638 145.13215 5686 ft 264 kts 227°
2026-04-30 11:11 -37.71984 145.11628 5480 ft 265 kts 227°
2026-04-30 11:12 -37.73319 145.10057 5283 ft 265 kts 227°
2026-04-30 11:12 -37.74686 145.08453 5083 ft 264 kts 228°
2026-04-30 11:12 -37.75928 145.06838 5001 ft 252 kts 241°
2026-04-30 11:12 -37.76533 145.04844 4912 ft 241 kts 263°
2026-04-30 11:13 -37.76825 145.02745 4664 ft 243 kts 266°
2026-04-30 11:13 -37.77094 145.00630 4415 ft 243 kts 266°
2026-04-30 11:13 -37.77356 144.98547 4167 ft 238 kts 266°
2026-04-30 11:13 -37.77612 144.96508 3919 ft 230 kts 267°
2026-04-30 11:14 -37.77868 144.94549 3669 ft 221 kts 267°
2026-04-30 11:14 -37.78121 144.92657 3416 ft 215 kts 266°
2026-04-30 11:14 -37.78367 144.90845 3158 ft 205 kts 266°
2026-04-30 11:14 -37.78568 144.89093 2903 ft 199 kts 269°
2026-04-30 11:15 -37.78764 144.87364 2650 ft 199 kts 268°
2026-04-30 11:15 -37.78631 144.85702 2398 ft 185 kts 302°
2026-04-30 11:15 -37.77761 144.84638 2147 ft 172 kts 341°
2026-04-30 11:15 -37.76624 144.84626 1912 ft 165 kts 15°
2026-04-30 11:16 -37.75527 144.85029 1706 ft 163 kts 12°
2026-04-30 11:16 -37.74430 144.85137 1500 ft 152 kts 358°
2026-04-30 11:16 -37.73444 144.84994 1302 ft 133 kts 354°
2026-04-30 11:16 -37.72574 144.84841 1125 ft 125 kts 353°
2026-04-30 11:17 -37.71727 144.84687 955 ft 118 kts 353°
2026-04-30 11:17 -37.70973 144.84547 819 ft 104 kts 352°
2026-04-30 11:17 -37.70269 144.84415 669 ft 100 kts 353°
2026-04-30 11:17 -37.69601 144.84289 551 ft 95 kts 350°
2026-04-30 11:18 -37.68958 144.84164 450 ft 92 kts 352°
2026-04-30 11:18 -37.67812 144.83954 359 ft 62 kts 352°
2026-04-30 11:18 -37.67393 144.83878 375 ft 60 kts 353°
2026-04-30 11:19 -37.67096 144.83832 387 ft 34 kts
2026-04-30 11:19 -37.66889 144.83886 392 ft 27 kts 17°
2026-04-30 11:19 -37.66790 144.83935 393 ft 13 kts 24°
2026-04-30 11:19 -37.66713 144.83976 395 ft 11 kts 20°
2026-04-30 11:20 -37.66647 144.84008 398 ft 9 kts 21°
2026-04-30 11:20 -37.66586 144.84048 401 ft 13 kts 52°
2026-04-30 11:20 -37.66604 144.84156 402 ft 16 kts 160°
2026-04-30 11:20 -37.66727 144.84186 398 ft 20 kts 170°
2026-04-30 11:21 -37.66874 144.84214 392 ft 23 kts 171°
2026-04-30 11:21 -37.67043 144.84241 386 ft 26 kts 172°
2026-04-30 11:21 -37.67198 144.84271 381 ft 15 kts 172°
2026-04-30 11:21 -37.67325 144.84294 377 ft 21 kts 173°
2026-04-30 11:22 -37.67477 144.84323 371 ft 18 kts 171°
2026-04-30 11:22 -37.67550 144.84334 369 ft 11 kts 173°
2026-04-30 11:22 -37.67615 144.84346 367 ft 6 kts 167°
2026-04-30 11:22 -37.67622 144.84395 367 ft 6 kts 84°
2026-04-30 11:23 -37.67627 144.84447 367 ft 6 kts 76°
2026-04-30 11:23 -37.67624 144.84475 368 ft 0 kts 83°